Location: Bats
(43.6587°N, 0.4584°W)
Time: 05:56:15
(UTC+00:00)

UNK - Visible Passes

Search period start: 19 April 2026 00:00
Search period end: 29 April 2026 00:00
Orbit: 654 x 672 km, 98.4° (Epoch: 18 April)

Date Brightness Start Highest point End Pass type
(mag) Time Alt. Az. Time Alt. Az. Time Alt. Az.
19 Apr 6.4 03:35:44 10° ESE 03:39:15 22° ENE 03:42:46 10° NNE visible
20 Apr 5.2 04:05:12 10° SE 04:09:31 41° ENE 04:13:49 10° N visible
21 Apr 7.3 03:02:56 10° ENE 03:03:44 10° ENE 03:04:32 10° NE visible
21 Apr 3.9 04:35:18 10° SSE 04:39:53 84° ENE 04:44:30 10° NNW visible
22 Apr 6.6 03:30:34 10° ESE 03:33:50 20° ENE 03:37:06 10° NNE visible
23 Apr 5.5 03:59:53 10° SE 04:04:04 36° ENE 04:08:15 10° N visible
24 Apr 4.1 04:29:52 10° SSE 04:34:26 73° ENE 04:39:00 10° N visible
25 Apr 6.8 03:25:27 10° ESE 03:28:25 17° ENE 03:31:24 10° NNE visible
26 Apr 5.8 03:54:34 10° SE 03:58:37 32° ENE 04:02:40 10° N visible
27 Apr 4.3 04:24:26 10° SSE 04:28:57 64° ENE 04:33:28 10° N visible
28 Apr 6.9 03:20:22 10° E 03:23:00 15° ENE 03:25:38 10° NNE visible
